[[{"header":{"parameterUnit":"m.s-1","parameterCategory":1,"la1":30.2992,"la2":30.254,"lo1":-89.0895,"lo2":-89.0443,"dy":0.0025,"dx":0.0025,"nx":19,"ny":19,"refTime":"2026-05-22T03:00:00:Z","depth":0,"parameterNumber":2,"parameterNumberName":"U-component_of_WINDS"},"data":[0,0,0,-1.4878,-1.4878,-1.4863,-1.4863,-1.4849,-1.4849,0,0,0,0,0,0,0,0,0,0,0,-1.4885,-1.4885,-1.4878,-1.4878,-1.4863,-1.4863,-1.4849,-1.4849,0,0,0,0,0,0,0,0,0,0,0,-1.4885,-1.4885,-1.4885,-1.4878,-1.4863,-1.4863,-1.4849,-1.4858,0,0,0,0,0,0,0,0,0,0,-1.4872,-1.488,-1.4885,-1.4885,-1.4878,-1.4863,-1.4863,-1.4859,-1.4858,-1.4857,0,-1.4857,0,-1.4853,-1.4848,-1.4848,0,0,0,-1.4876,-1.4881,-1.4875,-1.4885,-1.4878,-1.4863,-1.4869,-1.4858,-1.4857,-1.4856,-1.4857,-1.4856,-1.4852,-1.4848,-1.4848,-1.4849,-1.4849,0,0,-1.4877,-1.4883,-1.4876,-1.4874,-1.4876,-1.487,-1.4869,-1.4857,-1.4859,-1.4857,-1.4856,-1.4852,-1.4848,-1.4848,-1.4849,-1.4849,0,0,0,-1.4881,-1.4884,-1.4878,-1.4875,-1.4872,-1.4869,-1.4868,-1.4859,-1.4857,-1.4855,-1.4852,-1.4848,-1.4848,-1.4849,-1.4849,-1.4859,0,0,0,-1.4881,-1.4886,-1.4879,-1.4882,-1.4872,-1.4865,-1.487,-1.4858,-1.4856,-1.4852,-1.4848,-1.4847,-1.4849,-1.4849,-1.4858,-1.4862,0,0,0,-1.4885,-1.4886,-1.4885,-1.4883,-1.4876,-1.4865,-1.4862,-1.4857,-1.4854,-1.4848,-1.4847,-1.4849,-1.4849,-1.4858,-1.4861,-1.4864,0,0,0,-1.4891,-1.4893,-1.4885,-1.4887,-1.4876,-1.4871,-1.4862,-1.4858,-1.4854,-1.4848,-1.4849,-1.4849,-1.4858,-1.4861,-1.4864,-1.4867,-1.4869,0,0,-1.4897,-1.4894,-1.4895,-1.4887,-1.4885,-1.4873,-1.4873,-1.4863,-1.4857,-1.4853,-1.4852,-1.4858,-1.4861,-1.4864,-1.488,-1.4882,0,0,0,-1.4899,-1.4899,-1.4897,-1.4894,-1.4887,-1.4881,-1.4871,-1.4868,-1.4864,-1.4856,-1.486,-1.4862,-1.4863,-1.4864,-1.4866,-1.4867,-1.485,-1.485,-1.485,-1.4916,-1.4908,-1.4909,-1.49,-1.4897,-1.4887,-1.4884,-1.4878,-1.4872,-1.4873,-1.4871,-1.4882,-1.4883,-1.4884,-1.4885,-1.4873,-1.4873,-1.4873,-1.4873,-1.4924,-1.4923,-1.4915,-1.4913,-1.4906,-1.4904,-1.4895,-1.4891,-1.4888,-1.4882,-1.4883,-1.4876,-1.4887,-1.4887,-1.4874,-1.4874,-1.4873,-1.4873,-1.4873,-1.4934,-1.4932,-1.4928,-1.4923,-1.492,-1.4912,-1.491,-1.4904,-1.4898,-1.4898,-1.4896,-1.4896,-1.4894,-1.4898,-1.4898,-1.4898,-1.4898,-1.4898,-1.4898,-1.4945,-1.494,-1.4939,-1.4933,-1.4931,-1.4927,-1.4918,-1.4916,-1.4911,-1.4907,-1.4907,-1.49,-1.4889,-1.4886,-1.4899,-1.4899,-1.4898,-1.4898,-1.4898,-1.4954,-1.4951,-1.495,-1.4947,-1.494,-1.4938,-1.4931,-1.4926,-1.4923,-1.4923,-1.4917,-1.491,-1.4906,-1.4905,-1.4902,-1.4918,-1.4918,-1.4918,-1.4918,-1.4962,-1.496,-1.4957,-1.4954,-1.495,-1.4943,-1.4942,-1.4937,-1.493,-1.4928,-1.4925,-1.4922,-1.4921,-1.4918,-1.4916,-1.4914,-1.4932,-1.4932,-1.4932,-1.4967,-1.4965,-1.4965,-1.4959,-1.4953,-1.4949,-1.4948,-1.4945,-1.4937,-1.4933,-1.4927,-1.4926,-1.492,-1.4919,-1.4913,-1.491,-1.4906,0,0]},{"header":{"parameterUnit":"m.s-1","parameterCategory":1,"la1":30.2992,"la2":30.254,"lo1":-89.0895,"lo2":-89.0443,"dy":0.0025,"dx":0.0025,"nx":19,"ny":19,"refTime":"2026-05-22T03:00:00:Z","depth":0,"parameterNumber":3,"parameterNumberName":"V-component_of_WINDS"},"data":[0,0,0,4.3187,4.3188,4.3182,4.3181,4.3206,4.3207,0,0,0,0,0,0,0,0,0,0,0,4.3213,4.3214,4.3187,4.3188,4.3182,4.3181,4.3206,4.3207,0,0,0,0,0,0,0,0,0,0,0,4.3212,4.3213,4.3215,4.3188,4.3182,4.3181,4.3206,4.3198,0,0,0,0,0,0,0,0,0,0,4.3198,4.3246,4.3213,4.3215,4.3188,4.3182,4.3181,4.3197,4.3199,4.3224,0,4.3256,0,4.3232,4.3211,4.3211,0,0,0,4.317,4.3245,4.3222,4.3215,4.3188,4.3182,4.3179,4.3198,4.3199,4.3226,4.3256,4.3256,4.3233,4.3211,4.3212,4.3423,4.3425,0,0,4.317,4.3224,4.3221,4.3224,4.3231,4.318,4.3179,4.3198,4.3233,4.3256,4.3256,4.3233,4.3212,4.3212,4.3421,4.3423,0,0,0,4.3183,4.3225,4.3201,4.3224,4.3221,4.318,4.318,4.3232,4.322,4.3256,4.3233,4.3212,4.3213,4.3419,4.3422,4.3566,0,0,0,4.3183,4.3233,4.3202,4.3235,4.3221,4.3227,4.3214,4.3219,4.3219,4.3233,4.3212,4.3213,4.3417,4.3421,4.3558,4.3626,0,0,0,4.3205,4.3235,4.3242,4.3238,4.3237,4.3226,4.3214,4.3217,4.3206,4.3211,4.3214,4.3416,4.342,4.355,4.3614,4.3697,0,0,0,4.3244,4.3371,4.3246,4.3377,4.3238,4.3315,4.3213,4.3268,4.3289,4.3212,4.3417,4.3422,4.3548,4.3606,4.369,4.3779,4.3821,0,0,4.3435,4.3396,4.3469,4.3356,4.3471,4.3312,4.3445,4.3413,4.3363,4.3405,4.3409,4.356,4.3613,4.3696,4.4034,4.4068,0,0,0,4.3547,4.3601,4.3619,4.3642,4.3621,4.3606,4.3548,4.3535,4.3567,4.3397,4.361,4.364,4.3686,4.3726,4.3755,4.3791,4.3442,4.3442,4.3441,4.3897,4.3825,4.394,4.3867,4.389,4.3826,4.3837,4.3807,4.3729,4.378,4.3794,4.4008,4.4057,4.4078,4.4117,4.3833,4.3834,4.3834,4.3835,4.417,4.4234,4.4123,4.4196,4.4117,4.4175,4.4116,4.4057,4.4099,4.3993,4.403,4.3924,4.4118,4.4147,4.3845,4.3843,4.3842,4.3841,4.384,4.4393,4.4411,4.4392,4.4414,4.4439,4.4357,4.4401,4.4327,4.4258,4.4295,4.4299,4.4297,4.4286,4.4301,4.4302,4.4303,4.4304,4.4304,4.4305,4.4633,4.4606,4.4654,4.4638,4.464,4.4634,4.4565,4.4565,4.4545,4.4488,4.4487,4.4403,4.415,4.4089,4.4316,4.4314,4.4312,4.4311,4.4311,4.4941,4.4858,4.4932,4.4935,4.4906,4.4933,4.4836,4.484,4.4828,4.4852,4.4757,4.4581,4.4537,4.4513,4.4462,4.4772,4.4772,4.4772,4.4772,4.5131,4.5099,4.5156,4.5164,4.5163,4.5081,4.5162,4.5108,4.5038,4.5025,4.4968,4.4893,4.4873,4.484,4.481,4.4761,4.514,4.514,4.5141,4.5316,4.528,4.5367,4.5298,4.5268,4.5243,4.5317,4.5327,4.5231,4.5154,4.5013,4.4998,4.4876,4.484,4.4766,4.472,4.4629,0,0]}]]